Location: Eymir
(36.7333°N, 29.7833°E)
Time: 18:10:21
(UTC+00:00)

Landsat 7 - Pass Details

Date: 14 January 2026
Orbit: 680 x 682 km, 97.9° (Epoch: 17 February)

Event Time Altitude Azimuth Distance (km) Brightness Sun altitude
Rises 04:24:05 0° 11° (N) 3,047 7.0 -9.8°
Reaches altitude 10° 04:26:19 10° 11° (NNE) 2,128 6.2 -9.4°
Maximum altitude 04:30:59 87° 286° (WNW) 687 3.7 -8.5°
Drops below altitude 10° 04:35:37 10° 195° (SSW) 2,111 6.4 -7.7°
Sets 04:37:50 0° 195° (SSW) 3,022 7.2 -7.3°
